Location: Gniazdowice
(50.2124°N, 20.2673°E)
Time: 01:47:56
(UTC+00:00)

Cosmos 839 Rocket - Pass Details

Date: 23 May 2024
Orbit: 964 x 2088 km, 65.9° (Epoch: 18 June)

Event Time Altitude Azimuth Distance (km) Brightness Sun altitude
Rises 01:17:17 0° 321° (NW) 4,336 7.5 -10.7°
Reaches altitude 10° 01:20:21 10° 319° (NW) 3,212 6.8 -10.4°
Maximum altitude 01:27:43 72° 237° (WSW) 1,123 4.2 -9.6°
Drops below altitude 10° 01:33:55 10° 155° (SSE) 2,730 6.1 -9.0°
Sets 01:36:20 0° 153° (SSE) 3,646 6.8 -8.7°
